Orbital Elements
Epoch 2021 Jan. 26.0 TT = JDT 2459240.5
T 2021 Jan. 18.32672 TT Rudenko
q 4.5066277 (2000.0) P Q
z -0.0004758 Peri. 320.40162 -0.63998376 -0.74687549
+/-0.0003925 Node 194.26008 -0.37385817 +0.09738234
e 1.0021440 Incl. 132.86382 -0.67130533 +0.65779456
From 76 observations 2021 Feb. 12-Mar. 22, mean residual 0".4.
|